Tracking 19245 objects as of 18-Aug-2018
HD Live streaming from Space Station
objects crossing your sky now

NOAA 16 DEB

Track NOAA 16 DEB now!
10-day predictions


NORAD ID: 41278
Int'l Code: 2000-055GE
Perigee: 786.9 km
Apogee: 850.8 km
Inclination: 98.9 °
Period: 101.1 minutes
Semi major axis: 7189 km
RCS: Unknown
Launch date: September 21, 2000
Source: United States (US)
Launch site: AIR FORCE WESTERN TEST RANGE (AFWTR)

Note: This is SATELLITE DEBRIS
aabbcc
Your satellite tracking list
Your tracking list is empty




NASA's NSSDC Master Catalog

Two Line Element Set (TLE):
1 41278U 00055GE  18229.47535730  .00001242  00000-0  55430-3 0  9997
2 41278  98.8592 316.5844 0044442 115.0514 245.5288 14.24049564137678
Source of the keplerian elements: AFSPC